Location: Moreno
(33.9175°N, 117.1578°W)
Time: 10:58:21
(UTC+00:00)

Daily predictions for brighter satellites

Satellite Brightness Start Highest point End
(mag) Time Altitude Azimuth Time Altitude Azimuth Time Altitude Azimuth
S3M 3.9 12:00:53 10° NNW 12:07:02 70° W 12:13:15 10° S
SL-24 R/B - RUBIN 2 4.4 12:02:06 12° SSW 12:07:21 82° ESE 12:13:44 10° NNE
CBERS-1 4.0 12:07:22 10° NNE 12:12:29 85° ESE 12:17:34 10° SSW
Cosmos 1869 Rocket 4.3 12:08:24 10° N 12:12:40 56° E 12:16:53 10° SSE
Chandra Rocket (1) 2.7 12:11:17 21° SW 12:13:01 41° S 12:19:27 10° ESE
Cosmos 1470 Rocket 4.3 12:10:13 10° NNW 12:14:10 33° W 12:18:08 10° SSW
CZ-3 Stage 3 3.8 12:06:21 11° W 12:14:45 46° SSW 12:17:46 10° SE
Cosmos 1470 2.6 12:12:06 10° N 12:15:54 87° W 12:19:41 10° S
Cosmos 1331 Rocket 4.2 12:12:07 10° NNW 12:17:26 78° ENE 12:22:41 10° SSE
USA 290 3.3 12:20:52 10° NW 12:23:16 21° WSW 12:25:40 10° SSW
Cosmos 1655 Rocket 4.2 12:18:53 10° SSW 12:24:54 51° W 12:30:57 10° N
CZ-2C R/B 3.9 12:26:20 10° NNW 12:30:03 21° WNW 12:33:33 11° WSW
MINOTAUR IV R/B 4.5 12:26:00 10° NNW 12:30:25 67° WSW 12:34:47 10° S
Cosmos 2297 3.9 12:29:26 10° NNW 12:34:57 49° WSW 12:40:26 10° S
Cosmos 2369 Rocket 2.1 12:29:54 10° NNW 12:35:27 69° WSW 12:40:59 10° S
Cosmos 1862 Rocket 4.3 12:36:46 10° S 12:41:05 58° E 12:45:23 10° NNE
Cosmos 1933 Rocket 4.2 12:37:23 10° NNW 12:41:15 32° W 12:45:04 10° SSW
Cosmos 2315 Rocket 4.1 12:36:39 10° NNW 12:42:38 53° W 12:48:36 10° SSW
Cosmos 1908 3.0 12:39:17 10° NNW 12:42:52 59° W 12:46:25 10° S
COSMO-SKYMED 1 4.3 12:40:20 10° SE 12:44:22 40° ENE 12:48:26 10° N
SL-14 R/B 3.7 12:40:42 10° S 12:44:37 69° E 12:48:35 10° NNE
USA 276 4.3 12:42:38 10° S 12:44:44 19° SE 12:46:54 10° E
ATLAS 5 CENTAUR R/B 2.8 12:40:46 10° NW 12:46:04 42° WSW 12:52:21 10° S
Cosmos 1733 Rocket 4.3 12:43:38 10° N 12:47:49 47° E 12:51:57 10° SSE
H-2A R/B 2.4 12:43:19 10° N 12:48:09 47° WNW 12:53:07 10° SW
CZ-3 R/B 3.1 12:28:50 10° WSW 12:50:15 57° S 12:56:37 10° E
Cosmos 1244 Rocket 4.5 12:44:41 10° SSW 12:50:53 74° W 12:57:05 10° N
Cosmos 1943 4.1 12:46:23 10° SW 12:51:24 32° WNW 12:56:28 10° N
Meteor 1-23 Rocket 4.3 12:46:12 10° SSW 12:51:51 67° W 12:57:27 10° N
